| time (UTC) | temp C | wind direction | speed KPH | gust KPH | rain 1hr cm | rain 24hr cm | rain mn cm | humidity % | barometer mb |
| 20260504024544 | 15 | 294 | 25.7 | 43.5 | 0.00 | 0.00 | 0.00 | 46 | 992.6 |
| 20260504023042 | 15 | 291 | 30.6 | 48.3 | 0.00 | 0.00 | 0.00 | 43 | 992.6 |
| 20260504021543 | 16 | 277 | 32.2 | 51.5 | 0.00 | 0.00 | 0.00 | 40 | 992.3 |
| 20260504014543 | 17 | 287 | 22.5 | 33.8 | 0.00 | 0.00 | 0.00 | 35 | 991.9 |
| 20260504013046 | 17 | 288 | 20.9 | 30.6 | 0.00 | 0.00 | 0.00 | 35 | 992.0 |
| 20260504011543 | 18 | 283 | 24.1 | 40.2 | 0.00 | 0.00 | 0.00 | 35 | 992.2 |
| 20260504010048 | 18 | 305 | 25.7 | 40.2 | 0.00 | 0.00 | 0.00 | 36 | 992.5 |
| 20260504004549 | 18 | 280 | 11.3 | 20.9 | 0.00 | 0.00 | 0.00 | 44 | 992.7 |
| 20260504003051 | 19 | 288 | 16.1 | 27.4 | 0.00 | 0.00 | 0.00 | 43 | 992.6 |
| 20260504001552 | 19 | 260 | 16.1 | 30.6 | 0.00 | 0.00 | 0.00 | 43 | 992.6 |
| 20260504000050 | 20 | 259 | 20.9 | 35.4 | 0.00 | 0.00 | 0.00 | 42 | 992.9 |
| 20260503234601 | 20 | 232 | 29.0 | 48.3 | 0.00 | 0.00 | 0.00 | 41 | 993.1 |
| 20260503233048 | 20 | 247 | 32.2 | 48.3 | 0.00 | 0.00 | 0.00 | 40 | 993.4 |
| 20260503231548 | 20 | 247 | 24.1 | 43.5 | 0.00 | 0.00 | 0.00 | 38 | 993.6 |
| 20260503230047 | 20 | 259 | 22.5 | 46.7 | 0.00 | 0.00 | 0.00 | 37 | 993.6 |
| 20260503224543 | 21 | 250 | 30.6 | 48.3 | 0.00 | 0.00 | 0.00 | 34 | 993.6 |
| 20260503223042 | 21 | 264 | 27.4 | 45.1 | 0.00 | 0.00 | 0.00 | 32 | 993.8 |
| 20260503221554 | 21 | 262 | 27.4 | 54.7 | 0.00 | 0.00 | 0.00 | 31 | 994.1 |
| 20260503220043 | 21 | 230 | 24.1 | 45.1 | 0.00 | 0.00 | 0.00 | 27 | 994.4 |
| 20260503214545 | 21 | 227 | 20.9 | 37.0 | 0.00 | 0.00 | 0.00 | 28 | 994.5 |
| 20260503213046 | 21 | 227 | 24.1 | 40.2 | 0.00 | 0.00 | 0.00 | 29 | 994.9 |
| 20260503211546 | 20 | 207 | 17.7 | 46.7 | 0.00 | 0.00 | 0.00 | 33 | 995.6 |
| 20260503210043 | 20 | 240 | 20.9 | 49.9 | 0.00 | 0.00 | 0.00 | 29 | 996.0 |
| 20260503204546 | 21 | 245 | 12.9 | 40.2 | 0.00 | 0.00 | 0.00 | 28 | 996.1 |
| 20260503203055 | 21 | 241 | 14.5 | 51.5 | 0.00 | 0.00 | 0.00 | 30 | 996.6 |
| 20260503201549 | 21 | 254 | 24.1 | 45.1 | 0.00 | 0.00 | 0.00 | 29 | 997.3 |
| 20260503200050 | 21 | 254 | 19.3 | 49.9 | 0.00 | 0.00 | 0.00 | 29 | 997.7 |
| 20260503194552 | 21 | 244 | 27.4 | 56.3 | 0.00 | 0.00 | 0.00 | 29 | 998.3 |
| 20260503193043 | 21 | 223 | 24.1 | 37.0 | 0.00 | 0.00 | 0.00 | 30 | 998.6 |
| 20260503191541 | 21 | 263 | 25.7 | 40.2 | 0.00 | 0.00 | 0.00 | 31 | 998.9 |
| 20260503190041 | 20 | 224 | 19.3 | 35.4 | 0.00 | 0.00 | 0.00 | 32 | 999.5 |
| 20260503184544 | 20 | 209 | 17.7 | 33.8 | 0.00 | 0.00 | 0.00 | 33 | 1000.1 |
| 20260503183051 | 20 | 236 | 19.3 | 35.4 | 0.00 | 0.00 | 0.00 | 33 | 1000.8 |
| 20260503181539 | 20 | 196 | 19.3 | 32.2 | 0.00 | 0.00 | 0.00 | 31 | 1001.0 |
| 20260503180050 | 20 | 273 | 16.1 | 30.6 | 0.00 | 0.00 | 0.00 | 31 | 1001.5 |
| 20260503174543 | 19 | 221 | 16.1 | 22.5 | 0.00 | 0.00 | 0.00 | 30 | 1002.0 |
| 20260503173041 | 18 | 255 | 17.7 | 29.0 | 0.00 | 0.00 | 0.00 | 32 | 1002.5 |
| 20260503171547 | 18 | 242 | 16.1 | 25.7 | 0.00 | 0.00 | 0.00 | 35 | 1003.0 |
| 20260503081542 | 0 | 0 | 0.0 | 4.8 | 0.00 | 0.00 | 0.00 | 77 | 1008.9 |
| 20260503071603 | 2 | 290 | 1.6 | 3.2 | 0.00 | 0.00 | 0.00 | 73 | 1009.2 |
| 20260503054552 | 5 | 321 | 1.6 | 4.8 | 0.00 | 0.00 | 0.00 | 64 | 1009.4 |
| 20260503053043 | 5 | 325 | 1.6 | 9.7 | 0.00 | 0.00 | 0.00 | 63 | 1009.4 |
| 20260503051542 | 6 | 338 | 6.4 | 9.7 | 0.00 | 0.00 | 0.00 | 62 | 1009.3 |
| 20260503050043 | 7 | 346 | 6.4 | 14.5 | 0.00 | 0.00 | 0.00 | 60 | 1009.4 |
| 20260503044540 | 7 | 355 | 9.7 | 20.9 | 0.00 | 0.00 | 0.00 | 58 | 1009.0 |
| 20260503043040 | 8 | 9 | 11.3 | 19.3 | 0.00 | 0.00 | 0.00 | 57 | 1009.1 |
| 20260503041543 | 9 | 360 | 12.9 | 24.1 | 0.00 | 0.00 | 0.00 | 57 | 1008.9 |
| 20260503040051 | 10 | 345 | 11.3 | 17.7 | 0.00 | 0.00 | 0.00 | 57 | 1009.0 |
| 20260503034538 | 10 | 327 | 11.3 | 17.7 | 0.00 | 0.00 | 0.00 | 55 | 1008.6 |
| 20260503033041 | 10 | 304 | 8.0 | 16.1 | 0.00 | 0.00 | 0.00 | 53 | 1008.5 |
| 20260503031546 | 10 | 298 | 3.2 | 16.1 | 0.00 | 0.00 | 0.00 | 52 | 1008.4 |
| 20260503030048 | 11 | 303 | 12.9 | 24.1 | 0.00 | 0.00 | 0.00 | 52 | 1008.5 |